SP2FH-13 Weather Reports


time (UTC)temp
C
wind
direction
speed
KPH
gust
KPH
rain 1hr
cm
rain 24hr
cm
rain mn
cm
humidity
%
barometer
mb
20260504050302 15 123 3.2 6.4 0.00 0.00 0.00 50 1001.3
20260504045800 15 129 4.8 9.7 0.00 0.00 0.00 52 1001.3
20260504045259 15 108 4.8 9.7 0.00 0.00 0.00 53 1001.3
20260504044759 14 114 4.8 9.7 0.00 0.00 0.00 53 1001.3
20260504044258 13 179 6.4 9.7 0.00 0.00 0.00 54 1001.3
20260504043756 13 136 6.4 9.7 0.00 0.00 0.00 56 1001.3
20260504043254 13 212 6.4 9.7 0.00 0.00 0.00 58 1001.3
20260504042753 12 141 6.4 9.7 0.00 0.00 0.00 59 1001.2
20260504042252 12 149 6.4 8.0 0.00 0.00 0.00 60 1001.2
20260504041751 12 138 4.8 6.4 0.00 0.00 0.00 61 1001.3
20260504041249 12 138 4.8 6.4 0.00 0.00 0.00 61 1001.3
20260504040748 11 150 4.8 6.4 0.00 0.00 0.00 63 1001.2
20260504040247 11 144 4.8 6.4 0.00 0.00 0.00 65 1001.2
20260504035746 11 126 4.8 4.8 0.00 0.00 0.00 66 1001.2
20260504035245 11 138 4.8 4.8 0.00 0.00 0.00 65 1001.2
20260504034744 10 132 4.8 4.8 0.00 0.00 0.00 66 1001.2
20260504034242 10 132 3.2 4.8 0.00 0.00 0.00 66 1001.3
20260504033741 10 126 3.2 4.8 0.00 0.00 0.00 66 1001.3
20260504033240 11 120 3.2 4.8 0.00 0.00 0.00 66 1001.2
20260504032739 10 150 4.8 4.8 0.00 0.00 0.00 65 1001.2
20260504032238 10 132 4.8 4.8 0.00 0.00 0.00 65 1001.2
20260504031737 11 132 4.8 4.8 0.00 0.00 0.00 63 1001.2
20260504031236 11 135 4.8 6.4 0.00 0.00 0.00 64 1001.1
20260504030735 11 138 4.8 6.4 0.00 0.00 0.00 63 1001.2
20260504030234 12 144 4.8 6.4 0.00 0.00 0.00 60 1001.2
20260504025733 11 144 3.2 4.8 0.00 0.00 0.00 61 1001.2
20260504025231 11 150 4.8 6.4 0.00 0.00 0.00 62 1001.2
20260504024730 11 130 4.8 6.4 0.00 0.00 0.00 64 1001.1
20260504024229 11 120 4.8 4.8 0.00 0.00 0.00 63 1001.1
20260504023727 11 144 4.8 4.8 0.00 0.00 0.00 63 1001.1
20260504023226 11 118 4.8 6.4 0.00 0.00 0.00 63 1001.1
20260504022726 11 138 4.8 4.8 0.00 0.00 0.00 62 1001.1
20260504022225 11 150 4.8 4.8 0.00 0.00 0.00 62 1001.1
20260504021724 11 126 4.8 4.8 0.00 0.00 0.00 62 1001.1
20260504021222 12 126 4.8 4.8 0.00 0.00 0.00 61 1001.2
20260504020721 12 113 4.8 6.4 0.00 0.00 0.00 58 1001.2
20260504020220 12 138 3.2 4.8 0.00 0.00 0.00 58 1001.2
20260504015719 12 124 3.2 4.8 0.00 0.00 0.00 58 1001.2
20260504015217 12 125 3.2 3.2 0.00 0.00 0.00 58 1001.2
20260504014716 12 129 3.2 4.8 0.00 0.00 0.00 58 1001.2
20260504014215 12 138 3.2 4.8 0.00 0.00 0.00 58 1001.2
20260504013713 12 114 4.8 6.4 0.00 0.00 0.00 58 1001.2
20260504013213 12 132 4.8 6.4 0.00 0.00 0.00 57 1001.2
20260504012712 13 136 4.8 6.4 0.00 0.00 0.00 57 1001.2
20260504012211 13 126 4.8 6.4 0.00 0.00 0.00 57 1001.1
20260504011710 13 132 4.8 4.8 0.00 0.00 0.00 57 1001.2
20260504011208 13 130 4.8 6.4 0.00 0.00 0.00 58 1001.1
20260504010707 13 142 4.8 6.4 0.00 0.00 0.00 57 1001.2
20260504010206 13 137 4.8 6.4 0.00 0.00 0.00 57 1001.2
20260504005706 13 136 4.8 6.4 0.00 0.00 0.00 57 1001.2
20260504005204 13 135 4.8 6.4 0.00 0.00 0.00 56 1001.2
20260504004703 13 138 4.8 6.4 0.00 0.00 0.00 56 1001.2
20260504004202 13 132 4.8 6.4 0.00 0.00 0.00 55 1001.2
20260504003701 14 156 3.2 6.4 0.00 0.00 0.00 53 1001.2
20260504003159 14 137 4.8 8.0 0.00 0.00 0.00 52 1001.2
20260504002658 13 105 4.8 6.4 0.00 0.00 0.00 53 1001.2
20260504002157 13 156 3.2 4.8 0.00 0.00 0.00 55 1001.2
20260504001655 13 159 3.2 6.4 0.00 0.00 0.00 53 1001.2
20260504001155 14 156 4.8 6.4 0.00 0.00 0.00 54 1001.3
20260504000653 14 170 3.2 4.8 0.00 0.00 0.00 52 1001.3
20260504000151 14 129 3.2 4.8 0.00 0.00 0.00 52 1001.3
20260503235651 15 198 3.2 6.4 0.00 0.00 0.00 51 1001.3
20260503234648 15 138 4.8 6.4 0.00 0.00 0.00 50 1001.3
20260503234147 15 131 4.8 6.4 0.00 0.00 0.00 50 1001.4
20260503233645 15 142 3.2 8.0 0.00 0.00 0.00 49 1001.4
20260503233144 15 143 4.8 6.4 0.00 0.00 0.00 49 1001.4
20260503232644 15 149 4.8 6.4 0.00 0.00 0.00 49 1001.4
20260503232142 15 173 3.2 6.4 0.00 0.00 0.00 49 1001.4
20260503231641 15 106 4.8 6.4 0.00 0.00 0.00 49 1001.4
20260503231139 15 156 3.2 6.4 0.00 0.00 0.00 48 1001.4
20260503230638 16 157 3.2 6.4 0.00 0.00 0.00 48 1001.5
20260503230137 16 120 4.8 6.4 0.00 0.00 0.00 47 1001.5
20260503225636 16 181 4.8 8.0 0.00 0.00 0.00 48 1001.5
20260503225135 16 138 4.8 6.4 0.00 0.00 0.00 47 1001.5
20260503224633 16 147 3.2 6.4 0.00 0.00 0.00 47 1001.5
20260503224132 16 200 4.8 8.0 0.00 0.00 0.00 47 1001.5
20260503223631 16 149 6.4 8.0 0.00 0.00 0.00 46 1001.4
20260503223131 16 178 6.4 8.0 0.00 0.00 0.00 46 1001.5
20260503222629 16 148 6.4 8.0 0.00 0.00 0.00 45 1001.5
20260503222128 16 126 6.4 9.7 0.00 0.00 0.00 45 1001.5
20260503221626 16 159 4.8 6.4 0.00 0.00 0.00 45 1001.5
20260503221126 17 210 3.2 6.4 0.00 0.00 0.00 44 1001.5
20260503220624 17 192 3.2 6.4 0.00 0.00 0.00 44 1001.6
20260503220123 17 145 4.8 9.7 0.00 0.00 0.00 43 1001.7
20260503215622 17 204 4.8 8.0 0.00 0.00 0.00 43 1001.7
20260503215121 17 174 4.8 8.0 0.00 0.00 0.00 43 1001.7
20260503214620 17 187 4.8 8.0 0.00 0.00 0.00 43 1001.7
20260503214119 17 118 4.8 8.0 0.00 0.00 0.00 42 1001.6
20260503213618 17 179 4.8 8.0 0.00 0.00 0.00 44 1001.6
20260503213117 16 0 4.8 6.4 0.00 0.00 0.00 45 1001.6
20260503212616 16 134 4.8 6.4 0.00 0.00 0.00 45 1001.7
20260503212115 16 118 3.2 6.4 0.00 0.00 0.00 45 1001.7
20260503211614 16 150 4.8 6.4 0.00 0.00 0.00 45 1001.7
20260503211113 16 144 4.8 6.4 0.00 0.00 0.00 46 1001.7
20260503210613 16 123 4.8 9.7 0.00 0.00 0.00 46 1001.7
20260503210112 16 144 4.8 6.4 0.00 0.00 0.00 45 1001.7
20260503205611 16 156 3.2 4.8 0.00 0.00 0.00 45 1001.7
20260503205110 16 125 3.2 4.8 0.00 0.00 0.00 46 1001.7
20260503204609 16 138 3.2 4.8 0.00 0.00 0.00 45 1001.8
20260503204107 16 118 3.2 3.2 0.00 0.00 0.00 45 1001.7
20260503203606 16 130 3.2 4.8 0.00 0.00 0.00 45 1001.7
20260503203106 16 135 4.8 4.8 0.00 0.00 0.00 46 1001.6
20260503202605 16 130 4.8 4.8 0.00 0.00 0.00 46 1001.6
20260503202104 16 137 4.8 6.4 0.00 0.00 0.00 46 1001.7
20260503201603 16 136 4.8 4.8 0.00 0.00 0.00 46 1001.7
20260503201102 16 130 4.8 6.4 0.00 0.00 0.00 45 1001.7
20260503200601 16 126 4.8 4.8 0.00 0.00 0.00 43 1001.7
20260503200100 16 144 4.8 4.8 0.00 0.00 0.00 45 1001.7
20260503195558 17 146 4.8 4.8 0.00 0.00 0.00 44 1001.8
20260503195057 17 132 4.8 6.4 0.00 0.00 0.00 43 1001.8
20260503194556 17 145 4.8 6.4 0.00 0.00 0.00 42 1001.8
20260503194054 17 141 4.8 6.4 0.00 0.00 0.00 41 1001.8
20260503193553 18 135 4.8 6.4 0.00 0.00 0.00 41 1001.8
20260503193052 17 148 3.2 4.8 0.00 0.00 0.00 40 1001.8
20260503192550 17 149 3.2 4.8 0.00 0.00 0.00 43 1001.7
20260503192050 17 130 4.8 4.8 0.00 0.00 0.00 43 1001.8
20260503191549 17 126 3.2 4.8 0.00 0.00 0.00 43 1001.7
20260503191048 18 123 3.2 4.8 0.00 0.00 0.00 41 1001.8
20260503190547 18 120 3.2 4.8 0.00 0.00 0.00 40 1001.8
20260503190045 18 62 3.2 4.8 0.00 0.00 0.00 40 1001.7
20260503185544 18 128 4.8 6.4 0.00 0.00 0.00 38 1001.7
20260503185043 19 168 4.8 6.4 0.00 0.00 0.00 38 1001.7
20260503184542 19 151 4.8 6.4 0.00 0.00 0.00 37 1001.7
20260503184041 19 136 4.8 4.8 0.00 0.00 0.00 37 1001.6
20260503183540 20 142 4.8 6.4 0.00 0.00 0.00 37 1001.6
20260503182537 20 133 3.2 4.8 0.00 0.00 0.00 35 1001.5
20260503182037 21 144 3.2 4.8 0.00 0.00 0.00 35 1001.5
20260503181535 21 126 3.2 4.8 0.00 0.00 0.00 34 1001.5
20260503181034 21 168 3.2 6.4 0.00 0.00 0.00 33 1001.4
20260503180533 21 150 1.6 3.2 0.00 0.00 0.00 32 1001.4
20260503180032 22 168 3.2 6.4 0.00 0.00 0.00 32 1001.4
20260503175531 22 128 3.2 4.8 0.00 0.00 0.00 32 1001.4
20260503175030 22 160 3.2 4.8 0.00 0.00 0.00 31 1001.3
20260503174529 23 146 3.2 4.8 0.00 0.00 0.00 30 1001.3
20260503174028 23 144 3.2 6.4 0.00 0.00 0.00 29 1001.3
20260503173526 23 168 3.2 6.4 0.00 0.00 0.00 29 1001.3
20260503173025 23 98 3.2 6.4 0.00 0.00 0.00 29 1001.3
20260503172524 23 140 1.6 4.8 0.00 0.00 0.00 29 1001.3
20260503172023 23 160 1.6 4.8 0.00 0.00 0.00 29 1001.3
20260503171522 23 133 3.2 6.4 0.00 0.00 0.00 28 1001.3
20260503171020 24 121 0.0 3.2 0.00 0.00 0.00 25 1001.3
20260503170519 24 211 3.2 6.4 0.00 0.00 0.00 24 1001.2
20260503150947 27 306 6.4 9.7 0.00 0.00 0.00 20 1001.7
20260503150447 27 234 6.4 16.1 0.00 0.00 0.00 20 1001.7
20260503130919 27 127 6.4 12.9 0.00 0.00 0.00 21 1003.0
20260503130418 26 228 9.7 17.7 0.00 0.00 0.00 22 1003.1
20260503110351 25 138 8.0 14.5 0.00 0.00 0.00 23 1004.4
20260503090325 23 180 9.7 17.7 0.00 0.00 0.00 27 1005.5
20260503081314 23 138 4.8 11.3 0.00 0.00 0.00 25 1005.8
20260503080812 23 204 4.8 9.7 0.00 0.00 0.00 28 1005.8
20260503080311 23 192 4.8 8.0 0.00 0.00 0.00 27 1005.9
20260503072805 21 216 8.0 14.5 0.00 0.00 0.00 31 1006.0
20260503072305 21 198 4.8 6.4 0.00 0.00 0.00 30 1006.0
20260503071803 21 205 6.4 11.3 0.00 0.00 0.00 30 1006.1
20260503071302 21 200 6.4 11.3 0.00 0.00 0.00 30 1006.1
20260503070800 21 102 8.0 19.3 0.00 0.00 0.00 33 1006.1
20260503070259 20 162 6.4 17.7 0.00 0.00 0.00 32 1006.1